Luxor, Egypt

3:35 AM EET on April 24, 2018 (GMT +0200)
Luxor

Weather History for HELX - December, 2012

Change the Weather History Date:

Monday, December 3, 2012

  Actual Average Record
Temperature  
Mean Temperature 70 °F -  
Max Temperature 85 °F 72 °F 91 °F (2005)
Min Temperature 55 °F 46 °F 46 °F (1997)
Cooling Degree Days 5    
Growing Degree Days 20 (Base 50)    
Moisture  
Dew Point 47 °F    
Average Humidity 43    
Maximum Humidity 59    
Minimum Humidity 20    
Precipitation  
Precipitation 0.00 in 0.00 in - ()
Sea Level Pressure  
Sea Level Pressure 29.96 in    
Wind  
Wind Speed 0 mph ()    
Max Wind Speed 4 mph    
Max Gust Speed -    
Visibility 4.9 miles    
Events      
Averages and records for this station are not official NWS values.
T = Trace of Precipitation, MM = Missing Value Source: Averaged Metar Reports

Daily Weather History Graph

Daily Weather History Graph

Search for Another Location

Airport or City:

Astronomy

Dec. 03, 2012 Rise Set
Actual Time 6:20 AM EET 4:58 PM EET
Civil Twilight 5:55 AM EET 5:22 PM EET
Nautical Twilight 5:26 AM EET 5:51 PM EET
Astronomical Twilight 4:58 AM EET 6:19 PM EET
Moon 9:10 PM EET (12/3) 9:43 AM EET (12/3)
Length of Visible Light 11h 27m
Length of Day
10h 37m
Waning Gibbous, 80% of the Moon is Illuminated
Dec 3
Waning Gibbous
Dec 6
Last Quarter
Dec 13
New
Dec 20
First Quarter
Dec 28
Full

Hourly Weather History & Observations

Time (EET) Temp. Dew Point Humidity Pressure Visibility Wind Dir Wind Speed Gust Speed Precip Events Conditions
12:00 AM 64.4 °F 42.8 °F 45% 29.98 in - Calm Calm - N/A   Clear
1:00 AM 64.4 °F 42.8 °F 45% 29.98 in - Calm Calm - N/A   Clear
2:00 AM 61 °F 43 °F 39% 29.99 in 6 mi Calm Calm - -  
2:00 AM 60.8 °F 42.8 °F 52% 29.98 in - Calm Calm - N/A   Clear
3:00 AM 57.2 °F 42.8 °F 59% 29.98 in - Calm Calm - N/A   Clear
4:00 AM 59.0 °F 41.0 °F 51% 29.98 in - Calm Calm - N/A   Clear
5:00 AM 59.0 °F 41.0 °F 51% 29.98 in - NE 3.5 mph - N/A   Clear
6:00 AM 59.0 °F 41.0 °F 51% 29.98 in - South 2.3 mph - N/A   Clear
7:00 AM 57.2 °F 41.0 °F 55% 30.01 in - Calm Calm - N/A   Clear
8:00 AM 62 °F 44 °F 41% 30.02 in 6 mi Calm Calm - -  
8:00 AM 62.6 °F 44.6 °F 52% 30.01 in - Calm Calm - N/A   Clear
9:00 AM 68.0 °F 46.4 °F 46% 30.04 in - Calm Calm - N/A   Clear
10:00 AM 68.0 °F 50.0 °F 52% 30.04 in - Calm Calm - N/A   Clear
11:00 AM 77.0 °F 50.0 °F 39% 30.01 in - Calm Calm - N/A   Clear
12:00 PM 80.6 °F 50.0 °F 34% 29.95 in - Calm Calm - N/A   Clear
1:00 PM 84.2 °F 51.8 °F 33% 29.92 in - Calm Calm - N/A   Clear
2:00 PM 84 °F 49 °F 20% 29.92 in 6 mi WNW 1.2 mph - -   Clear
2:00 PM 84.2 °F 50.0 °F 30% 29.92 in - WNW 1.2 mph - N/A   Clear
3:00 PM 84.2 °F 48.2 °F 29% 29.92 in - Calm Calm - N/A   Clear
4:00 PM 82.4 °F 50.0 °F 32% 29.89 in - Calm Calm - N/A   Clear
5:00 PM 78.8 °F 51.8 °F 39% 29.89 in - Calm Calm - N/A   Clear
6:00 PM 75.2 °F 53.6 °F 47% 29.89 in - Calm Calm - N/A   Clear
7:00 PM 71.6 °F 53.6 °F 53% 29.89 in - Calm Calm - N/A   Clear
8:00 PM 71 °F 46 °F 29% 29.91 in 4 mi Calm Calm - -   Haze
8:00 PM 71.6 °F 53.6 °F 53% 29.89 in 3.7 mi Calm Calm - N/A   Unknown
9:00 PM 69.8 °F 46.4 °F 43% 29.95 in 3.7 mi Calm Calm - N/A   Unknown
10:00 PM 68.0 °F 42.8 °F 40% 29.95 in - SSE 3.5 mph - N/A   Clear
11:00 PM 68.0 °F 42.8 °F 40% 29.92 in - Calm Calm - N/A   Clear